Time,TemperatureF,DewpointF,PressureIn,WindDirection,WindDirectionDegrees,WindSpeedMPH,WindSpeedGustMPH,Humidity,HourlyPrecipIn,Conditions,Clouds,dailyrainin,SoftwareType,DateUTC
2013-07-28 00:00:00,52.8,50.2,29.88,WNW,291,0.0,1.0,91,0.00,,---,0.00,VWS V14.01,2013-07-28 04:00:00,
2013-07-28 00:01:00,52.8,50.2,29.88,WNW,291,0.0,0.0,91,0.00,,---,0.00,VWS V14.01,2013-07-28 04:01:00,
2013-07-28 00:02:00,52.8,50.2,29.88,WNW,291,0.0,0.0,91,0.00,,---,0.00,VWS V14.01,2013-07-28 04:02:00,
2013-07-28 00:03:00,52.8,50.2,29.87,WNW,291,0.0,0.0,91,0.00,,---,0.00,VWS V14.01,2013-07-28 04:03:00,
2013-07-28 00:08:00,52.9,50.6,29.88,SSW,201,1.0,1.0,92,0.00,,---,0.00,VWS V14.01,2013-07-28 04:08:00,
2013-07-28 00:13:00,53.1,50.8,29.88,SE,134,0.0,1.0,92,0.00,,---,0.00,VWS V14.01,2013-07-28 04:13:00,
2013-07-28 00:18:00,53.3,51.0,29.87,SE,134,0.0,1.0,92,0.00,,---,0.00,VWS V14.01,2013-07-28 04:18:00,
2013-07-28 00:23:00,53.2,50.7,29.87,SE,134,0.0,1.0,91,0.00,,---,0.00,VWS V14.01,2013-07-28 04:23:00,
2013-07-28 00:28:00,53.1,50.8,29.87,SE,134,0.0,1.0,92,0.00,,---,0.00,VWS V14.01,2013-07-28 04:28:00,
2013-07-28 00:30:00,53.0,50.7,29.87,SE,134,0.0,1.0,92,0.00,,---,0.00,VWS V14.01,2013-07-28 04:30:00,
2013-07-28 00:33:00,52.9,50.3,29.87,SE,134,0.0,0.0,91,0.00,,---,0.00,VWS V14.01,2013-07-28 04:33:00,
2013-07-28 00:38:00,52.6,50.3,29.87,SE,134,0.0,0.0,92,0.00,,---,0.00,VWS V14.01,2013-07-28 04:38:00,
2013-07-28 00:43:00,52.2,49.7,29.86,SE,134,0.0,0.0,91,0.00,,---,0.00,VWS V14.01,2013-07-28 04:43:00,
2013-07-28 00:48:00,52.0,50.0,29.87,SE,134,0.0,1.0,93,0.00,,---,0.00,VWS V14.01,2013-07-28 04:48:00,
2013-07-28 00:53:00,52.2,50.5,29.87,SE,134,0.0,1.0,94,0.00,,---,0.00,VWS V14.01,2013-07-28 04:53:00,
2013-07-28 00:58:00,52.3,50.3,29.87,SE,134,0.0,1.0,93,0.00,,---,0.00,VWS V14.01,2013-07-28 04:58:00,
2013-07-28 01:00:00,52.3,50.3,29.87,SE,134,0.0,1.0,93,0.00,,---,0.00,VWS V14.01,2013-07-28 05:00:00,
2013-07-28 01:03:00,52.3,50.3,29.86,SE,134,0.0,0.0,93,0.00,,---,0.00,VWS V14.01,2013-07-28 05:03:00,
2013-07-28 01:08:00,52.2,50.2,29.86,SE,134,0.0,0.0,93,0.00,,---,0.00,VWS V14.01,2013-07-28 05:08:00,
2013-07-28 01:13:00,52.2,50.2,29.86,SE,134,0.0,0.0,93,0.00,,---,0.00,VWS V14.01,2013-07-28 05:13:00,
2013-07-28 01:18:00,52.2,50.5,29.87,SE,134,0.0,0.0,94,0.00,,---,0.00,VWS V14.01,2013-07-28 05:18:00,
2013-07-28 01:23:00,52.4,50.7,29.87,SSE,150,0.0,1.0,94,0.00,,---,0.00,VWS V14.01,2013-07-28 05:23:00,
2013-07-28 01:28:00,52.5,50.8,29.87,SSE,153,0.0,1.0,94,0.00,,---,0.00,VWS V14.01,2013-07-28 05:28:00,
2013-07-28 01:30:00,52.6,50.6,29.87,SSE,153,0.0,1.0,93,0.00,,---,0.00,VWS V14.01,2013-07-28 05:30:00,
2013-07-28 01:33:00,52.6,50.6,29.86,SSE,153,0.0,0.0,93,0.00,,---,0.00,VWS V14.01,2013-07-28 05:33:00,
2013-07-28 01:38:00,52.5,50.2,29.86,SSE,153,0.0,0.0,92,0.00,,---,0.00,VWS V14.01,2013-07-28 05:38:00,
2013-07-28 01:43:00,52.5,50.2,29.86,SSE,154,0.0,0.0,92,0.00,,---,0.00,VWS V14.01,2013-07-28 05:43:00,
2013-07-28 01:48:00,52.5,50.2,29.86,SSE,150,0.0,0.0,92,0.00,,---,0.00,VWS V14.01,2013-07-28 05:48:00,
2013-07-28 01:53:00,52.4,50.2,29.86,SSE,150,0.0,0.0,92,0.00,,---,0.00,VWS V14.01,2013-07-28 05:53:00,
2013-07-28 01:58:00,52.1,49.8,29.86,SSE,150,0.0,0.0,92,0.00,,---,0.00,VWS V14.01,2013-07-28 05:58:00,
2013-07-28 02:00:00,52.2,50.2,29.86,SSE,150,0.0,0.0,93,0.00,,---,0.00,VWS V14.01,2013-07-28 06:00:00,
2013-07-28 02:03:00,52.3,50.3,29.86,SSE,150,0.0,0.0,93,0.00,,---,0.00,VWS V14.01,2013-07-28 06:03:00,
2013-07-28 02:08:00,52.4,50.4,29.86,SSE,150,0.0,0.0,93,0.00,,---,0.00,VWS V14.01,2013-07-28 06:08:00,
2013-07-28 02:13:00,52.3,50.3,29.86,SSE,150,0.0,0.0,93,0.00,,---,0.00,VWS V14.01,2013-07-28 06:13:00,
2013-07-28 02:18:00,52.5,50.5,29.86,SSE,148,0.0,1.0,93,0.00,,---,0.00,VWS V14.01,2013-07-28 06:18:00,
2013-07-28 02:23:00,52.5,50.5,29.86,SSW,206,0.0,1.0,93,0.00,,---,0.00,VWS V14.01,2013-07-28 06:23:00,
2013-07-28 02:28:00,52.7,50.5,29.86,SSW,205,0.0,1.0,92,0.00,,---,0.00,VWS V14.01,2013-07-28 06:28:00,
2013-07-28 02:30:00,52.8,50.5,29.86,SSW,205,0.0,1.0,92,0.00,,---,0.00,VWS V14.01,2013-07-28 06:30:00,
2013-07-28 02:33:00,52.8,50.5,29.86,SSW,205,0.0,0.0,92,0.00,,---,0.00,VWS V14.01,2013-07-28 06:33:00,
2013-07-28 02:38:00,52.8,50.5,29.86,SSW,205,0.0,0.0,92,0.00,,---,0.00,VWS V14.01,2013-07-28 06:38:00,
2013-07-28 02:43:00,52.7,50.5,29.86,SSW,205,0.0,0.0,92,0.00,,---,0.00,VWS V14.01,2013-07-28 06:43:00,
2013-07-28 02:48:00,52.5,50.2,29.86,SSW,205,0.0,0.0,92,0.00,,---,0.00,VWS V14.01,2013-07-28 06:48:00,
2013-07-28 02:53:00,52.2,50.0,29.86,SSW,205,0.0,0.0,92,0.00,,---,0.00,VWS V14.01,2013-07-28 06:53:00,
2013-07-28 02:58:00,52.1,50.1,29.86,SSW,205,0.0,0.0,93,0.00,,---,0.00,VWS V14.01,2013-07-28 06:58:00,
2013-07-28 03:00:00,52.1,50.1,29.86,SSW,205,0.0,0.0,93,0.00,,---,0.00,VWS V14.01,2013-07-28 07:00:00,
2013-07-28 03:03:00,52.0,50.0,29.86,SSW,205,0.0,0.0,93,0.00,,---,0.00,VWS V14.01,2013-07-28 07:03:00,
2013-07-28 03:08:00,51.8,49.5,29.86,SSW,205,0.0,0.0,92,0.00,,---,0.00,VWS V14.01,2013-07-28 07:08:00,
2013-07-28 03:13:00,51.4,49.2,29.86,SSW,205,0.0,0.0,92,0.00,,---,0.00,VWS V14.01,2013-07-28 07:13:00,
2013-07-28 03:18:00,51.2,49.2,29.86,SSW,205,0.0,0.0,93,0.00,,---,0.00,VWS V14.01,2013-07-28 07:18:00,
2013-07-28 03:23:00,51.0,49.0,29.86,SSW,205,0.0,0.0,93,0.00,,---,0.00,VWS V14.01,2013-07-28 07:23:00,
2013-07-28 03:28:00,50.9,49.2,29.86,SSW,205,0.0,0.0,94,0.00,,---,0.00,VWS V14.01,2013-07-28 07:28:00,
2013-07-28 03:30:00,50.9,49.2,29.86,SSW,205,0.0,0.0,94,0.00,,---,0.00,VWS V14.01,2013-07-28 07:30:00,
2013-07-28 03:33:00,50.8,49.1,29.86,SSW,210,0.0,0.0,94,0.00,,---,0.00,VWS V14.01,2013-07-28 07:33:00,
2013-07-28 03:38:00,51.1,49.7,29.86,SSW,206,0.0,0.0,95,0.00,,---,0.00,VWS V14.01,2013-07-28 07:38:00,
2013-07-28 03:43:00,51.1,49.4,29.86,SSW,205,0.0,0.0,94,0.00,,---,0.00,VWS V14.01,2013-07-28 07:43:00,
2013-07-28 03:48:00,50.9,49.2,29.86,SSW,205,0.0,0.0,94,0.00,,---,0.00,VWS V14.01,2013-07-28 07:48:00,
2013-07-28 03:53:00,51.1,49.7,29.86,SSW,198,0.0,0.0,95,0.00,,---,0.00,VWS V14.01,2013-07-28 07:53:00,
2013-07-28 03:58:00,51.2,49.8,29.86,WSW,238,0.0,0.0,95,0.00,,---,0.00,VWS V14.01,2013-07-28 07:58:00,
2013-07-28 04:00:00,51.3,49.9,29.86,SW,225,0.0,0.0,95,0.00,,---,0.00,VWS V14.01,2013-07-28 08:00:00,
2013-07-28 04:03:00,51.4,50.0,29.86,West,269,0.0,1.0,95,0.00,,---,0.00,VWS V14.01,2013-07-28 08:03:00,
2013-07-28 04:08:00,51.6,49.9,29.86,SE,129,0.0,1.0,94,0.00,,---,0.00,VWS V14.01,2013-07-28 08:08:00,
2013-07-28 04:13:00,51.7,50.0,29.86,SW,221,0.0,1.0,94,0.00,,---,0.00,VWS V14.01,2013-07-28 08:13:00,
2013-07-28 04:18:00,51.9,49.9,29.86,SSW,208,0.0,2.0,93,0.00,,---,0.00,VWS V14.01,2013-07-28 08:18:00,
2013-07-28 04:23:00,52.0,50.0,29.85,SSW,212,2.0,3.0,93,0.00,,---,0.00,VWS V14.01,2013-07-28 08:23:00,
2013-07-28 04:28:00,52.1,50.1,29.85,SSE,158,1.0,3.0,93,0.00,,---,0.00,VWS V14.01,2013-07-28 08:28:00,
2013-07-28 04:30:00,52.2,50.0,29.85,SSW,212,0.0,3.0,92,0.00,,---,0.00,VWS V14.01,2013-07-28 08:30:00,
2013-07-28 04:33:00,52.2,50.0,29.85,South,190,0.0,1.0,92,0.00,,---,0.00,VWS V14.01,2013-07-28 08:33:00,
2013-07-28 04:38:00,52.2,50.0,29.86,SSE,148,1.0,2.0,92,0.00,,---,0.00,VWS V14.01,2013-07-28 08:38:00,
2013-07-28 04:43:00,52.1,49.8,29.85,South,186,0.0,2.0,92,0.00,,---,0.00,VWS V14.01,2013-07-28 08:43:00,
2013-07-28 04:48:00,52.1,49.8,29.85,South,183,0.0,2.0,92,0.00,,---,0.00,VWS V14.01,2013-07-28 08:48:00,
2013-07-28 04:53:00,52.0,49.8,29.85,South,188,1.0,3.0,92,0.00,,---,0.00,VWS V14.01,2013-07-28 08:53:00,
2013-07-28 04:58:00,52.1,49.8,29.85,SSE,148,1.0,3.0,92,0.00,,---,0.00,VWS V14.01,2013-07-28 08:58:00,
2013-07-28 05:00:00,52.1,49.6,29.85,SSW,200,1.0,3.0,91,0.00,,---,0.00,VWS V14.01,2013-07-28 09:00:00,
2013-07-28 05:04:00,52.1,49.6,29.85,SE,146,1.0,2.0,91,0.00,,---,0.00,VWS V14.01,2013-07-28 09:04:00,
2013-07-28 05:09:00,52.1,49.6,29.85,SE,138,1.0,2.0,91,0.00,,---,0.00,VWS V14.01,2013-07-28 09:09:00,
2013-07-28 05:14:00,52.0,49.5,29.85,SSW,195,0.0,3.0,91,0.00,,---,0.00,VWS V14.01,2013-07-28 09:14:00,
2013-07-28 05:19:00,51.9,49.4,29.86,SSW,210,1.0,3.0,91,0.00,,---,0.00,VWS V14.01,2013-07-28 09:19:00,
2013-07-28 05:24:00,51.8,49.5,29.86,SSW,198,0.0,3.0,92,0.00,,---,0.00,VWS V14.01,2013-07-28 09:24:00,
2013-07-28 05:29:00,51.8,49.5,29.86,SSE,150,0.0,3.0,92,0.00,,---,0.00,VWS V14.01,2013-07-28 09:29:00,
2013-07-28 05:30:00,51.8,49.6,29.86,SE,141,0.0,3.0,92,0.00,,---,0.00,VWS V14.01,2013-07-28 09:30:00,
2013-07-28 05:34:00,51.7,49.5,29.86,SE,141,0.0,0.0,92,0.00,,---,0.00,VWS V14.01,2013-07-28 09:34:00,
2013-07-28 05:39:00,51.6,49.4,29.86,SSE,152,0.0,2.0,92,0.00,,---,0.00,VWS V14.01,2013-07-28 09:39:00,
2013-07-28 05:44:00,51.6,49.4,29.86,SSE,158,0.0,2.0,92,0.00,,---,0.00,VWS V14.01,2013-07-28 09:44:00,
2013-07-28 05:49:00,51.7,49.5,29.87,SE,143,1.0,4.0,92,0.00,,---,0.00,VWS V14.01,2013-07-28 09:49:00,
2013-07-28 05:54:00,51.7,49.2,29.86,SSE,149,0.0,4.0,91,0.00,,---,0.00,VWS V14.01,2013-07-28 09:54:00,
2013-07-28 05:59:00,51.7,49.2,29.86,SSW,192,1.0,4.0,91,0.00,,---,0.00,VWS V14.01,2013-07-28 09:59:00,
2013-07-28 06:00:00,51.7,49.2,29.86,South,186,1.0,4.0,91,0.00,,---,0.00,VWS V14.01,2013-07-28 10:00:00,
2013-07-28 06:04:00,51.7,49.2,29.86,SE,141,1.0,4.0,91,0.00,,---,0.00,VWS V14.01,2013-07-28 10:04:00,
2013-07-28 06:09:00,51.7,49.2,29.86,SE,137,3.0,4.0,91,0.00,,---,0.00,VWS V14.01,2013-07-28 10:09:00,
2013-07-28 06:14:00,51.7,49.2,29.87,SE,138,1.0,4.0,91,0.00,,---,0.00,VWS V14.01,2013-07-28 10:14:00,
2013-07-28 06:19:00,51.6,49.1,29.87,SSW,211,1.0,4.0,91,0.00,,---,0.00,VWS V14.01,2013-07-28 10:19:00,
2013-07-28 06:24:00,51.6,49.1,29.87,SSE,150,3.0,4.0,91,0.00,,---,0.00,VWS V14.01,2013-07-28 10:24:00,
2013-07-28 06:29:00,51.6,48.8,29.87,SSW,198,1.0,4.0,90,0.00,,---,0.00,VWS V14.01,2013-07-28 10:29:00,
2013-07-28 06:30:00,51.6,48.8,29.87,SSW,203,2.0,4.0,90,0.00,,---,0.00,VWS V14.01,2013-07-28 10:30:00,
2013-07-28 06:34:00,51.6,48.8,29.87,ESE,117,1.0,4.0,90,0.00,,---,0.00,VWS V14.01,2013-07-28 10:34:00,
2013-07-28 06:39:00,51.6,48.8,29.88,South,179,1.0,5.0,90,0.00,,---,0.00,VWS V14.01,2013-07-28 10:39:00,
2013-07-28 06:44:00,51.6,48.8,29.88,SW,229,0.0,5.0,90,0.00,,---,0.00,VWS V14.01,2013-07-28 10:44:00,
2013-07-28 06:49:00,51.6,48.8,29.88,SSW,208,1.0,5.0,90,0.00,,---,0.00,VWS V14.01,2013-07-28 10:49:00,
2013-07-28 06:54:00,51.6,48.8,29.88,WSW,243,1.0,5.0,90,0.00,,---,0.00,VWS V14.01,2013-07-28 10:54:00,
2013-07-28 06:59:00,51.6,48.8,29.88,WNW,294,2.0,5.0,90,0.00,,---,0.00,VWS V14.01,2013-07-28 10:59:00,
2013-07-28 07:00:00,51.7,48.9,29.88,South,172,1.0,5.0,90,0.00,,---,0.00,VWS V14.01,2013-07-28 11:00:00,
2013-07-28 07:04:00,51.7,48.6,29.88,SSW,194,2.0,4.0,89,0.00,,---,0.00,VWS V14.01,2013-07-28 11:04:00,
2013-07-28 07:09:00,51.8,48.7,29.89,SE,129,1.0,5.0,89,0.00,,---,0.00,VWS V14.01,2013-07-28 11:09:00,
2013-07-28 07:14:00,51.8,48.7,29.89,SW,216,3.0,5.0,89,0.00,,---,0.00,VWS V14.01,2013-07-28 11:14:00,
2013-07-28 07:19:00,52.0,48.9,29.89,SW,214,1.0,9.0,89,0.00,,---,0.00,VWS V14.01,2013-07-28 11:19:00,
2013-07-28 07:24:00,52.1,48.7,29.89,SE,146,2.0,9.0,88,0.00,,---,0.00,VWS V14.01,2013-07-28 11:24:00,
2013-07-28 07:29:00,52.2,48.8,29.89,SSE,155,1.0,9.0,88,0.00,,---,0.00,VWS V14.01,2013-07-28 11:29:00,
2013-07-28 07:30:00,52.2,48.8,29.89,SW,226,3.0,9.0,88,0.00,,---,0.00,VWS V14.01,2013-07-28 11:30:00,
2013-07-28 07:34:00,52.3,48.9,29.90,South,188,2.0,6.0,88,0.00,,---,0.00,VWS V14.01,2013-07-28 11:34:00,
2013-07-28 07:39:00,52.4,49.0,29.90,West,281,4.0,7.0,88,0.00,,---,0.00,VWS V14.01,2013-07-28 11:39:00,
2013-07-28 07:44:00,52.5,49.0,29.90,WSW,248,4.0,7.0,88,0.00,,---,0.00,VWS V14.01,2013-07-28 11:44:00,
2013-07-28 07:49:00,53.0,49.5,29.90,WNW,293,2.0,7.0,88,0.00,,---,0.00,VWS V14.01,2013-07-28 11:49:00,
2013-07-28 07:54:00,53.5,49.7,29.90,SW,219,0.0,7.0,87,0.00,,---,0.00,VWS V14.01,2013-07-28 11:54:00,
2013-07-28 07:59:00,54.0,49.9,29.90,SW,218,3.0,7.0,86,0.00,,---,0.00,VWS V14.01,2013-07-28 11:59:00,
2013-07-28 08:00:00,54.1,50.0,29.90,SE,143,3.0,7.0,86,0.00,,---,0.00,VWS V14.01,2013-07-28 12:00:00,
2013-07-28 08:04:00,54.4,50.0,29.90,SSE,158,0.0,6.0,85,0.00,,---,0.00,VWS V14.01,2013-07-28 12:04:00,
2013-07-28 08:09:00,54.7,50.0,29.90,SE,143,2.0,6.0,84,0.00,,---,0.00,VWS V14.01,2013-07-28 12:09:00,
2013-07-28 08:14:00,55.0,50.3,29.90,WSW,253,4.0,7.0,84,0.00,,---,0.00,VWS V14.01,2013-07-28 12:14:00,
2013-07-28 08:19:00,55.3,50.2,29.91,South,170,4.0,7.0,83,0.00,,---,0.00,VWS V14.01,2013-07-28 12:19:00,
2013-07-28 08:24:00,55.7,50.6,29.90,South,170,3.0,7.0,83,0.00,,---,0.00,VWS V14.01,2013-07-28 12:24:00,
2013-07-28 08:29:00,56.1,50.7,29.90,South,184,4.0,7.0,82,0.00,,---,0.00,VWS V14.01,2013-07-28 12:29:00,
2013-07-28 08:30:00,55.9,50.2,29.91,West,259,5.0,7.0,81,0.00,,---,0.00,VWS V14.01,2013-07-28 12:30:00,
2013-07-28 08:34:00,55.9,50.5,29.91,SSW,200,1.0,7.0,82,0.00,,---,0.00,VWS V14.01,2013-07-28 12:34:00,
2013-07-28 08:39:00,56.4,51.0,29.91,NW,312,1.0,7.0,82,0.00,,---,0.00,VWS V14.01,2013-07-28 12:39:00,
2013-07-28 08:44:00,57.3,51.2,29.90,SE,142,4.0,8.0,80,0.00,,---,0.00,VWS V14.01,2013-07-28 12:44:00,
2013-07-28 08:49:00,57.1,51.0,29.90,SW,214,4.0,8.0,80,0.00,,---,0.00,VWS V14.01,2013-07-28 12:49:00,
2013-07-28 08:54:00,57.0,51.2,29.90,SSW,200,2.0,8.0,81,0.00,,---,0.00,VWS V14.01,2013-07-28 12:54:00,
2013-07-28 08:59:00,57.0,50.9,29.90,WSW,250,1.0,11.0,80,0.00,,---,0.00,VWS V14.01,2013-07-28 12:59:00,
2013-07-28 09:00:00,57.0,50.9,29.90,SSW,204,4.0,11.0,80,0.00,,---,0.00,VWS V14.01,2013-07-28 13:00:00,
2013-07-28 09:04:00,56.8,50.4,29.91,West,264,3.0,6.0,79,0.00,,---,0.00,VWS V14.01,2013-07-28 13:04:00,
2013-07-28 09:09:00,56.7,50.6,29.90,SSW,198,1.0,10.0,80,0.00,,---,0.00,VWS V14.01,2013-07-28 13:09:00,
2013-07-28 09:14:00,56.6,49.8,29.91,NW,311,3.0,11.0,78,0.00,,---,0.00,VWS V14.01,2013-07-28 13:14:00,
2013-07-28 09:19:00,56.6,50.5,29.91,SSE,152,2.0,11.0,80,0.00,,---,0.00,VWS V14.01,2013-07-28 13:19:00,
2013-07-28 09:24:00,56.8,50.4,29.90,ESE,115,1.0,11.0,79,0.00,,---,0.00,VWS V14.01,2013-07-28 13:24:00,
2013-07-28 09:29:00,56.8,50.4,29.91,West,262,2.0,11.0,79,0.00,,---,0.00,VWS V14.01,2013-07-28 13:29:00,
2013-07-28 09:30:00,56.8,50.4,29.91,WNW,284,4.0,11.0,79,0.00,,---,0.00,VWS V14.01,2013-07-28 13:30:00,
2013-07-28 09:34:00,57.0,50.6,29.91,SW,225,0.0,5.0,79,0.00,,---,0.00,VWS V14.01,2013-07-28 13:34:00,
2013-07-28 09:39:00,57.5,50.7,29.91,WSW,246,2.0,10.0,78,0.00,,---,0.00,VWS V14.01,2013-07-28 13:39:00,
2013-07-28 09:44:00,58.1,50.9,29.91,SW,222,6.0,10.0,77,0.00,,---,0.00,VWS V14.01,2013-07-28 13:44:00,
2013-07-28 09:49:00,58.3,50.8,29.91,SSW,205,1.0,10.0,76,0.00,,---,0.00,VWS V14.01,2013-07-28 13:49:00,
2013-07-28 09:54:00,58.8,50.9,29.91,NW,312,3.0,10.0,75,0.00,,---,0.00,VWS V14.01,2013-07-28 13:54:00,
2013-07-28 09:59:00,59.1,50.8,29.90,WSW,239,0.0,10.0,74,0.00,,---,0.00,VWS V14.01,2013-07-28 13:59:00,
2013-07-28 10:00:00,59.2,51.3,29.90,West,259,2.0,10.0,75,0.00,,---,0.00,VWS V14.01,2013-07-28 14:00:00,
2013-07-28 10:04:00,59.4,51.1,29.90,West,277,1.0,6.0,74,0.00,,---,0.00,VWS V14.01,2013-07-28 14:04:00,
2013-07-28 10:10:00,60.1,51.4,29.90,North,360,4.0,9.0,73,0.00,,---,0.00,VWS V14.01,2013-07-28 14:10:00,
2013-07-28 10:15:00,60.9,51.8,29.90,WSW,246,3.0,9.0,72,0.00,,---,0.00,VWS V14.01,2013-07-28 14:15:00,
2013-07-28 10:20:00,61.4,52.3,29.90,SW,224,6.0,9.0,72,0.00,,---,0.00,VWS V14.01,2013-07-28 14:20:00,
2013-07-28 10:25:00,62.0,52.5,29.90,NW,304,1.0,9.0,71,0.00,,---,0.00,VWS V14.01,2013-07-28 14:25:00,
2013-07-28 10:30:00,61.6,51.0,29.91,West,273,3.0,9.0,68,0.00,,---,0.00,VWS V14.01,2013-07-28 14:30:00,
2013-07-28 10:35:00,61.4,51.2,29.90,North,356,1.0,8.0,69,0.00,,---,0.00,VWS V14.01,2013-07-28 14:35:00,
2013-07-28 10:40:00,61.6,51.0,29.91,South,170,4.0,11.0,68,0.00,,---,0.00,VWS V14.01,2013-07-28 14:40:00,
2013-07-28 10:45:00,61.8,51.5,29.91,SSW,208,9.0,11.0,69,0.00,,---,0.00,VWS V14.01,2013-07-28 14:45:00,
2013-07-28 10:50:00,62.1,51.8,29.91,West,260,7.0,12.0,69,0.00,,---,0.00,VWS V14.01,2013-07-28 14:50:00,
2013-07-28 10:55:00,61.8,51.1,29.91,WNW,287,3.0,15.0,68,0.00,,---,0.00,VWS V14.01,2013-07-28 14:55:00,
2013-07-28 11:00:00,61.5,50.5,29.91,West,266,3.0,15.0,67,0.00,,---,0.00,VWS V14.01,2013-07-28 15:00:00,
2013-07-28 11:05:00,61.4,50.8,29.91,South,184,5.0,11.0,68,0.00,,---,0.00,VWS V14.01,2013-07-28 15:05:00,
2013-07-28 11:10:00,61.4,51.2,29.91,NW,305,1.0,11.0,69,0.00,,---,0.00,VWS V14.01,2013-07-28 15:10:00,
2013-07-28 11:15:00,62.0,51.7,29.91,NW,304,2.0,11.0,69,0.00,,---,0.00,VWS V14.01,2013-07-28 15:15:00,
2013-07-28 11:20:00,62.6,51.9,29.91,West,278,2.0,11.0,68,0.00,,---,0.00,VWS V14.01,2013-07-28 15:20:00,
2013-07-28 11:25:00,63.0,51.9,29.91,SW,218,4.0,11.0,67,0.00,,---,0.00,VWS V14.01,2013-07-28 15:25:00,
2013-07-28 11:30:00,63.0,51.5,29.91,WSW,240,3.0,12.0,66,0.00,,---,0.00,VWS V14.01,2013-07-28 15:30:00,
2013-07-28 11:35:00,63.5,52.0,29.91,WNW,300,3.0,9.0,66,0.00,,---,0.00,VWS V14.01,2013-07-28 15:35:00,
2013-07-28 11:40:00,63.7,51.7,29.91,SSW,205,3.0,9.0,65,0.00,,---,0.00,VWS V14.01,2013-07-28 15:40:00,
2013-07-28 11:45:00,63.8,53.0,29.91,SW,218,3.0,12.0,68,0.00,,---,0.00,VWS V14.01,2013-07-28 15:45:00,
2013-07-28 11:50:00,63.8,51.8,29.91,SSW,213,5.0,12.0,65,0.00,,---,0.00,VWS V14.01,2013-07-28 15:50:00,
2013-07-28 11:55:00,63.5,51.1,29.91,West,277,3.0,12.0,64,0.00,,---,0.00,VWS V14.01,2013-07-28 15:55:00,
2013-07-28 12:00:00,63.7,51.3,29.90,NW,319,8.0,12.0,64,0.00,,---,0.00,VWS V14.01,2013-07-28 16:00:00,
2013-07-28 12:05:00,63.9,51.5,29.91,ENE,71,2.0,8.0,64,0.00,,---,0.00,VWS V14.01,2013-07-28 16:05:00,
2013-07-28 12:10:00,64.2,51.8,29.90,West,266,2.0,8.0,64,0.00,,---,0.00,VWS V14.01,2013-07-28 16:10:00,
2013-07-28 12:15:00,64.3,51.9,29.90,WNW,285,1.0,8.0,64,0.00,,---,0.00,VWS V14.01,2013-07-28 16:15:00,
2013-07-28 12:20:00,64.7,52.7,29.90,SW,221,5.0,8.0,65,0.00,,---,0.00,VWS V14.01,2013-07-28 16:20:00,
2013-07-28 12:25:00,64.8,53.6,29.90,SW,220,4.0,8.0,67,0.00,,---,0.00,VWS V14.01,2013-07-28 16:25:00,
2013-07-28 12:30:00,65.0,53.4,29.90,SW,226,5.0,8.0,66,0.00,,---,0.00,VWS V14.01,2013-07-28 16:30:00,
2013-07-28 12:35:00,65.4,52.9,29.89,WSW,245,6.0,6.0,64,0.00,,---,0.00,VWS V14.01,2013-07-28 16:35:00,
2013-07-28 12:40:00,65.5,53.4,29.90,SSE,163,2.0,6.0,65,0.00,,---,0.00,VWS V14.01,2013-07-28 16:40:00,
2013-07-28 12:45:00,66.3,52.0,29.89,NW,308,2.0,12.0,60,0.00,,---,0.00,VWS V14.01,2013-07-28 16:45:00,
2013-07-28 12:50:00,66.4,52.1,29.89,SSW,212,2.0,12.0,60,0.00,,---,0.00,VWS V14.01,2013-07-28 16:50:00,
2013-07-28 12:55:00,67.0,52.7,29.89,WNW,287,4.0,12.0,60,0.00,,---,0.00,VWS V14.01,2013-07-28 16:55:00,
2013-07-28 13:00:00,67.0,52.2,29.89,South,181,6.0,12.0,59,0.00,,---,0.00,VWS V14.01,2013-07-28 17:00:00,
2013-07-28 13:05:00,67.7,52.9,29.89,ENE,59,2.0,11.0,59,0.00,,---,0.00,VWS V14.01,2013-07-28 17:05:00,
2013-07-28 13:10:00,67.7,51.9,29.89,NNW,330,6.0,11.0,57,0.00,,---,0.00,VWS V14.01,2013-07-28 17:10:00,
2013-07-28 13:15:00,67.7,52.9,29.89,NNW,330,6.0,12.0,59,0.00,,---,0.00,VWS V14.01,2013-07-28 17:15:00,
2013-07-28 13:20:00,67.4,52.1,29.89,WNW,285,2.0,12.0,58,0.00,,---,0.00,VWS V14.01,2013-07-28 17:20:00,
2013-07-28 13:25:00,67.0,52.2,29.89,SSW,205,4.0,12.0,59,0.00,,---,0.00,VWS V14.01,2013-07-28 17:25:00,
2013-07-28 13:30:00,66.8,52.9,29.89,South,191,5.0,12.0,61,0.00,,---,0.00,VWS V14.01,2013-07-28 17:30:00,
2013-07-28 13:35:00,66.5,52.2,29.89,WNW,295,2.0,10.0,60,0.00,,---,0.00,VWS V14.01,2013-07-28 17:35:00,
2013-07-28 13:40:00,66.0,52.2,29.89,WNW,291,1.0,10.0,61,0.00,,---,0.00,VWS V14.01,2013-07-28 17:40:00,
2013-07-28 13:45:00,65.8,52.0,29.89,NW,317,1.0,10.0,61,0.00,,---,0.00,VWS V14.01,2013-07-28 17:45:00,
2013-07-28 13:50:00,66.1,51.8,29.89,West,278,6.0,12.0,60,0.00,,---,0.00,VWS V14.01,2013-07-28 17:50:00,
2013-07-28 13:55:00,66.2,51.9,29.89,NNW,331,5.0,12.0,60,0.00,,---,0.00,VWS V14.01,2013-07-28 17:55:00,
2013-07-28 14:00:00,66.9,52.6,29.90,SE,129,1.0,13.0,60,0.00,,---,0.00,VWS V14.01,2013-07-28 18:00:00,
2013-07-28 14:05:00,66.6,51.4,29.90,WNW,283,2.0,10.0,58,0.00,,---,0.00,VWS V14.01,2013-07-28 18:05:00,
2013-07-28 14:10:00,65.9,51.2,29.90,West,276,2.0,11.0,59,0.00,,---,0.00,VWS V14.01,2013-07-28 18:10:00,
2013-07-28 14:15:00,65.2,51.4,29.90,WNW,292,1.0,11.0,61,0.00,,---,0.00,VWS V14.01,2013-07-28 18:15:00,
2013-07-28 14:20:00,64.8,52.3,29.90,SSW,212,6.0,11.0,64,0.00,,---,0.00,VWS V14.01,2013-07-28 18:20:00,
2013-07-28 14:25:00,64.4,52.0,29.90,SSW,210,2.0,11.0,64,0.00,,---,0.00,VWS V14.01,2013-07-28 18:25:00,
2013-07-28 14:30:00,64.3,51.9,29.90,NNE,13,4.0,4.0,64,0.00,,---,0.00,VWS V14.01,2013-07-28 18:30:00,
2013-07-28 14:35:00,64.1,52.5,29.91,NW,305,2.0,6.0,66,0.00,,---,0.00,VWS V14.01,2013-07-28 18:35:00,
2013-07-28 14:40:00,64.2,52.2,29.90,WNW,288,6.0,9.0,65,0.00,,---,0.00,VWS V14.01,2013-07-28 18:40:00,
2013-07-28 14:45:00,64.3,52.3,29.91,WSW,255,3.0,9.0,65,0.00,,---,0.00,VWS V14.01,2013-07-28 18:45:00,
2013-07-28 14:50:00,64.0,52.8,29.91,West,267,3.0,9.0,67,0.00,,---,0.00,VWS V14.01,2013-07-28 18:50:00,
2013-07-28 14:55:00,63.8,53.0,29.91,NW,311,1.0,9.0,68,0.00,,---,0.00,VWS V14.01,2013-07-28 18:55:00,
2013-07-28 15:00:00,63.9,53.1,29.91,NW,319,2.0,2.0,68,0.00,,---,0.00,VWS V14.01,2013-07-28 19:00:00,
2013-07-28 15:05:00,64.0,52.8,29.91,WNW,285,4.0,6.0,67,0.00,,---,0.00,VWS V14.01,2013-07-28 19:05:00,
2013-07-28 15:10:00,64.3,53.5,29.91,WSW,252,1.0,7.0,68,0.00,,---,0.00,VWS V14.01,2013-07-28 19:10:00,
2013-07-28 15:16:00,64.5,53.7,29.91,WNW,290,3.0,7.0,68,0.00,,---,0.00,VWS V14.01,2013-07-28 19:16:00,
2013-07-28 15:21:00,64.8,53.6,29.91,WNW,284,2.0,7.0,67,0.00,,---,0.00,VWS V14.01,2013-07-28 19:21:00,
2013-07-28 15:25:00,64.9,52.5,29.91,WSW,240,6.0,18.0,64,0.00,,---,0.00,VWS V14.01,2013-07-28 19:25:00,
2013-07-28 15:30:00,65.0,52.5,29.91,NE,37,5.0,7.0,64,0.00,,---,0.00,VWS V14.01,2013-07-28 19:30:00,
2013-07-28 15:35:00,65.3,52.8,29.92,NNW,342,2.0,10.0,64,0.00,,---,0.00,VWS V14.01,2013-07-28 19:35:00,
2013-07-28 15:41:00,65.5,53.4,29.91,NNE,18,2.0,10.0,65,0.00,,---,0.00,VWS V14.01,2013-07-28 19:41:00,
2013-07-28 15:46:00,65.2,52.7,29.92,WSW,248,9.0,12.0,64,0.00,,---,0.00,VWS V14.01,2013-07-28 19:46:00,
2013-07-28 15:51:00,65.6,53.5,29.92,WNW,298,7.0,12.0,65,0.00,,---,0.00,VWS V14.01,2013-07-28 19:51:00,
2013-07-28 15:56:00,66.0,53.5,29.91,WSW,248,3.0,12.0,64,0.00,,---,0.00,VWS V14.01,2013-07-28 19:56:00,
2013-07-28 16:00:00,66.0,52.2,29.92,West,274,2.0,12.0,61,0.00,,---,0.00,VWS V14.01,2013-07-28 20:00:00,
2013-07-28 16:01:00,65.9,52.1,29.92,NNE,18,3.0,4.0,61,0.00,,---,0.00,VWS V14.01,2013-07-28 20:01:00,
2013-07-28 16:06:00,66.0,52.6,29.92,West,264,5.0,8.0,62,0.00,,---,0.00,VWS V14.01,2013-07-28 20:06:00,
2013-07-28 16:11:00,66.4,53.4,29.92,South,191,4.0,13.0,63,0.00,,---,0.00,VWS V14.01,2013-07-28 20:11:00,
2013-07-28 16:16:00,67.0,54.0,29.92,SSW,203,2.0,13.0,63,0.00,,---,0.00,VWS V14.01,2013-07-28 20:16:00,
2013-07-28 16:21:00,67.0,53.1,29.92,SW,219,8.0,13.0,61,0.00,,---,0.00,VWS V14.01,2013-07-28 20:21:00,
2013-07-28 16:26:00,66.2,52.4,29.92,NNW,335,2.0,13.0,61,0.00,,---,0.00,VWS V14.01,2013-07-28 20:26:00,
2013-07-28 16:30:00,65.6,52.2,29.92,West,281,2.0,13.0,62,0.00,,---,0.00,VWS V14.01,2013-07-28 20:30:00,
2013-07-28 16:32:00,65.5,52.6,29.92,West,270,4.0,5.0,63,0.00,,---,0.00,VWS V14.01,2013-07-28 20:32:00,
2013-07-28 16:37:00,65.2,52.3,29.93,WSW,246,5.0,10.0,63,0.00,,---,0.00,VWS V14.01,2013-07-28 20:37:00,
2013-07-28 16:42:00,65.2,51.4,29.92,SSW,207,2.0,10.0,61,0.00,,---,0.00,VWS V14.01,2013-07-28 20:42:00,
2013-07-28 16:47:00,65.7,51.5,29.92,WNW,287,2.0,10.0,60,0.00,,---,0.00,VWS V14.01,2013-07-28 20:47:00,
2013-07-28 16:52:00,66.1,51.4,29.93,SW,229,7.0,13.0,59,0.00,,---,0.00,VWS V14.01,2013-07-28 20:52:00,
2013-07-28 16:57:00,66.9,52.1,29.93,WNW,288,2.0,13.0,59,0.00,,---,0.00,VWS V14.01,2013-07-28 20:57:00,
2013-07-28 17:00:00,67.5,52.7,29.93,SSW,212,1.0,13.0,59,0.00,,---,0.00,VWS V14.01,2013-07-28 21:00:00,
2013-07-28 17:02:00,67.4,52.6,29.93,NNW,329,6.0,11.0,59,0.00,,---,0.00,VWS V14.01,2013-07-28 21:02:00,
2013-07-28 17:07:00,66.2,51.0,29.94,SW,219,4.0,11.0,58,0.00,,---,0.00,VWS V14.01,2013-07-28 21:07:00,
2013-07-28 17:12:00,65.4,51.2,29.93,ENE,59,2.0,11.0,60,0.00,,---,0.00,VWS V14.01,2013-07-28 21:12:00,
2013-07-28 17:17:00,65.1,51.3,29.93,NNW,337,1.0,11.0,61,0.00,,---,0.00,VWS V14.01,2013-07-28 21:17:00,
2013-07-28 17:22:00,64.8,51.9,29.93,NW,315,2.0,11.0,63,0.00,,---,0.00,VWS V14.01,2013-07-28 21:22:00,
2013-07-28 17:27:00,64.9,52.0,29.94,NNW,346,3.0,11.0,63,0.00,,---,0.00,VWS V14.01,2013-07-28 21:27:00,
2013-07-28 17:30:00,65.0,52.5,29.94,SSW,212,4.0,11.0,64,0.00,,---,0.00,VWS V14.01,2013-07-28 21:30:00,
2013-07-28 17:32:00,65.0,51.7,29.94,NW,314,2.0,6.0,62,0.00,,---,0.00,VWS V14.01,2013-07-28 21:32:00,
2013-07-28 17:38:00,65.0,52.5,29.93,SSW,208,4.0,10.0,64,0.00,,---,0.00,VWS V14.01,2013-07-28 21:38:00,
2013-07-28 17:43:00,65.3,52.4,29.94,NNW,347,1.0,10.0,63,0.00,,---,0.00,VWS V14.01,2013-07-28 21:43:00,
2013-07-28 17:48:00,65.4,52.1,29.94,SW,221,1.0,10.0,62,0.00,,---,0.00,VWS V14.01,2013-07-28 21:48:00,
2013-07-28 17:53:00,65.4,52.5,29.94,SSW,200,1.0,10.0,63,0.00,,---,0.00,VWS V14.01,2013-07-28 21:53:00,
2013-07-28 17:58:00,66.0,53.5,29.94,WSW,239,5.0,10.0,64,0.00,,---,0.00,VWS V14.01,2013-07-28 21:58:00,
2013-07-28 18:00:00,66.0,53.1,29.94,North,350,5.0,10.0,63,0.00,,---,0.00,VWS V14.01,2013-07-28 22:00:00,
2013-07-28 18:03:00,66.1,53.2,29.94,NNW,335,2.0,7.0,63,0.00,,---,0.00,VWS V14.01,2013-07-28 22:03:00,
2013-07-28 18:08:00,65.9,53.4,29.94,West,276,3.0,7.0,64,0.00,,---,0.00,VWS V14.01,2013-07-28 22:08:00,
2013-07-28 18:13:00,65.8,53.7,29.94,SSW,198,3.0,7.0,65,0.00,,---,0.00,VWS V14.01,2013-07-28 22:13:00,
2013-07-28 18:18:00,65.8,53.7,29.94,WNW,283,4.0,9.0,65,0.00,,---,0.00,VWS V14.01,2013-07-28 22:18:00,
2013-07-28 18:23:00,65.7,53.2,29.94,WSW,255,1.0,10.0,64,0.00,,---,0.00,VWS V14.01,2013-07-28 22:23:00,
2013-07-28 18:28:00,66.1,53.2,29.94,NNW,348,2.0,10.0,63,0.00,,---,0.00,VWS V14.01,2013-07-28 22:28:00,
2013-07-28 18:30:00,66.4,53.0,29.94,NW,312,5.0,10.0,62,0.00,,---,0.00,VWS V14.01,2013-07-28 22:30:00,
2013-07-28 18:33:00,66.7,53.3,29.94,West,260,2.0,7.0,62,0.00,,---,0.00,VWS V14.01,2013-07-28 22:33:00,
2013-07-28 18:38:00,66.3,52.0,29.94,North,352,1.0,7.0,60,0.00,,---,0.00,VWS V14.01,2013-07-28 22:38:00,
2013-07-28 18:43:00,66.2,51.9,29.94,WSW,257,3.0,10.0,60,0.00,,---,0.00,VWS V14.01,2013-07-28 22:43:00,
2013-07-28 18:48:00,66.4,51.7,29.94,West,269,1.0,11.0,59,0.00,,---,0.00,VWS V14.01,2013-07-28 22:48:00,
2013-07-28 18:53:00,65.8,51.1,29.94,NW,309,4.0,11.0,59,0.00,,---,0.00,VWS V14.01,2013-07-28 22:53:00,
2013-07-28 18:58:00,66.0,52.2,29.95,NE,41,0.0,11.0,61,0.00,,---,0.00,VWS V14.01,2013-07-28 22:58:00,
2013-07-28 19:00:00,66.3,52.5,29.95,West,281,1.0,11.0,61,0.00,,---,0.00,VWS V14.01,2013-07-28 23:00:00,
2013-07-28 19:03:00,66.7,53.3,29.95,West,269,0.0,5.0,62,0.00,,---,0.00,VWS V14.01,2013-07-28 23:03:00,
2013-07-28 19:08:00,67.1,54.1,29.95,NW,308,1.0,7.0,63,0.00,,---,0.00,VWS V14.01,2013-07-28 23:08:00,
2013-07-28 19:13:00,66.6,52.8,29.95,NNW,333,2.0,7.0,61,0.00,,---,0.00,VWS V14.01,2013-07-28 23:13:00,
2013-07-28 19:18:00,66.2,52.8,29.95,NE,44,6.0,7.0,62,0.00,,---,0.00,VWS V14.01,2013-07-28 23:18:00,
2013-07-28 19:23:00,66.2,52.8,29.95,NW,316,2.0,7.0,62,0.00,,---,0.00,VWS V14.01,2013-07-28 23:23:00,
2013-07-28 19:28:00,66.4,53.4,29.96,East,92,1.0,7.0,63,0.00,,---,0.00,VWS V14.01,2013-07-28 23:28:00,
2013-07-28 19:30:00,66.4,52.6,29.96,West,277,2.0,7.0,61,0.00,,---,0.00,VWS V14.01,2013-07-28 23:30:00,
2013-07-28 19:33:00,66.3,52.9,29.96,NW,304,0.0,4.0,62,0.00,,---,0.00,VWS V14.01,2013-07-28 23:33:00,
2013-07-28 19:38:00,66.4,53.4,29.96,NNW,338,2.0,4.0,63,0.00,,---,0.00,VWS V14.01,2013-07-28 23:38:00,
2013-07-28 19:43:00,66.3,52.9,29.96,SW,221,3.0,4.0,62,0.00,,---,0.00,VWS V14.01,2013-07-28 23:43:00,
2013-07-28 19:48:00,66.5,52.7,29.96,SSW,201,0.0,4.0,61,0.00,,---,0.00,VWS V14.01,2013-07-28 23:48:00,
2013-07-28 19:53:00,66.5,52.7,29.96,NW,309,2.0,4.0,61,0.00,,---,0.00,VWS V14.01,2013-07-28 23:53:00,
2013-07-28 19:58:00,66.2,52.8,29.96,WNW,293,0.0,4.0,62,0.00,,---,0.00,VWS V14.01,2013-07-28 23:58:00,
2013-07-28 20:00:00,66.2,52.8,29.96,SW,236,1.0,4.0,62,0.00,,---,0.00,VWS V14.01,2013-07-29 00:00:00,
2013-07-28 20:03:00,66.1,52.7,29.96,SW,232,4.0,6.0,62,0.00,,---,0.00,VWS V14.01,2013-07-29 00:03:00,
2013-07-28 20:08:00,65.5,52.6,29.96,WNW,295,0.0,6.0,63,0.00,,---,0.00,VWS V14.01,2013-07-29 00:08:00,
2013-07-28 20:13:00,65.2,52.7,29.96,WNW,295,2.0,6.0,64,0.00,,---,0.00,VWS V14.01,2013-07-29 00:13:00,
2013-07-28 20:18:00,64.6,53.0,29.97,NNW,342,0.0,6.0,66,0.00,,---,0.00,VWS V14.01,2013-07-29 00:18:00,
2013-07-28 20:23:00,64.0,52.8,29.97,North,1,0.0,6.0,67,0.00,,---,0.00,VWS V14.01,2013-07-29 00:23:00,
2013-07-28 20:29:00,63.4,52.7,29.97,North,1,0.0,6.0,68,0.00,,---,0.00,VWS V14.01,2013-07-29 00:29:00,
2013-07-28 20:30:00,63.3,52.6,29.97,North,352,0.0,6.0,68,0.00,,---,0.00,VWS V14.01,2013-07-29 00:30:00,
2013-07-28 20:34:00,63.0,52.7,29.97,WNW,285,0.0,2.0,69,0.00,,---,0.00,VWS V14.01,2013-07-29 00:34:00,
2013-07-28 20:39:00,62.6,52.7,29.97,WNW,285,0.0,2.0,70,0.00,,---,0.00,VWS V14.01,2013-07-29 00:39:00,
2013-07-28 20:44:00,62.1,52.2,29.97,SW,218,0.0,2.0,70,0.00,,---,0.00,VWS V14.01,2013-07-29 00:44:00,
2013-07-28 20:49:00,61.8,52.3,29.97,WSW,248,0.0,2.0,71,0.00,,---,0.00,VWS V14.01,2013-07-29 00:49:00,
2013-07-28 20:54:00,61.4,52.3,29.97,WSW,248,0.0,2.0,72,0.00,,---,0.00,VWS V14.01,2013-07-29 00:54:00,
2013-07-28 20:59:00,61.0,52.3,29.97,WSW,243,0.0,2.0,73,0.00,,---,0.00,VWS V14.01,2013-07-29 00:59:00,
2013-07-28 21:00:00,60.9,52.2,29.97,WSW,243,0.0,2.0,73,0.00,,---,0.00,VWS V14.01,2013-07-29 01:00:00,
2013-07-28 21:04:00,60.6,52.3,29.97,WSW,243,0.0,0.0,74,0.00,,---,0.00,VWS V14.01,2013-07-29 01:04:00,
2013-07-28 21:09:00,60.1,52.2,29.97,WSW,243,0.0,0.0,75,0.00,,---,0.00,VWS V14.01,2013-07-29 01:09:00,
2013-07-28 21:14:00,59.6,52.7,29.97,WSW,243,0.0,0.0,78,0.00,,---,0.00,VWS V14.01,2013-07-29 01:14:00,
2013-07-28 21:19:00,59.0,52.5,29.98,WSW,243,0.0,0.0,79,0.00,,---,0.00,VWS V14.01,2013-07-29 01:19:00,
2013-07-28 21:25:00,58.3,52.2,29.98,WSW,243,0.0,0.0,80,0.00,,---,0.00,VWS V14.01,2013-07-29 01:25:00,
2013-07-28 21:30:00,57.5,52.1,29.98,WSW,243,0.0,0.0,82,0.00,,---,0.00,VWS V14.01,2013-07-29 01:30:00,
2013-07-28 21:35:00,56.8,51.7,29.98,WSW,243,0.0,0.0,83,0.00,,---,0.00,VWS V14.01,2013-07-29 01:35:00,
2013-07-28 21:40:00,56.1,51.7,29.98,WSW,243,0.0,0.0,85,0.00,,---,0.00,VWS V14.01,2013-07-29 01:40:00,
2013-07-28 21:45:00,55.4,51.3,29.98,WSW,243,0.0,0.0,86,0.00,,---,0.00,VWS V14.01,2013-07-29 01:45:00,
2013-07-28 21:50:00,54.9,51.1,29.99,WSW,243,0.0,0.0,87,0.00,,---,0.00,VWS V14.01,2013-07-29 01:50:00,
2013-07-28 21:56:00,54.4,51.2,29.99,WSW,243,0.0,0.0,89,0.00,,---,0.00,VWS V14.01,2013-07-29 01:56:00,
2013-07-28 22:00:00,54.2,51.3,29.99,WSW,243,0.0,0.0,90,0.00,,---,0.00,VWS V14.01,2013-07-29 02:00:00,
2013-07-28 22:01:00,54.2,51.3,29.99,WSW,243,0.0,0.0,90,0.00,,---,0.00,VWS V14.01,2013-07-29 02:01:00,
2013-07-28 22:06:00,54.0,51.4,29.99,WSW,243,0.0,0.0,91,0.00,,---,0.00,VWS V14.01,2013-07-29 02:06:00,
2013-07-28 22:11:00,53.7,51.1,29.99,WSW,243,0.0,0.0,91,0.00,,---,0.00,VWS V14.01,2013-07-29 02:11:00,
2013-07-28 22:16:00,53.6,51.0,29.99,WSW,243,0.0,0.0,91,0.00,,---,0.00,VWS V14.01,2013-07-29 02:16:00,
2013-07-28 22:21:00,53.4,50.8,29.99,WSW,243,0.0,0.0,91,0.00,,---,0.00,VWS V14.01,2013-07-29 02:21:00,
2013-07-28 22:26:00,53.2,50.9,30.00,WSW,243,0.0,0.0,92,0.00,,---,0.00,VWS V14.01,2013-07-29 02:26:00,
2013-07-28 22:30:00,53.2,50.9,30.00,WSW,243,0.0,0.0,92,0.00,,---,0.00,VWS V14.01,2013-07-29 02:30:00,
2013-07-28 22:32:00,53.2,50.9,29.99,WSW,243,0.0,0.0,92,0.00,,---,0.00,VWS V14.01,2013-07-29 02:32:00,
2013-07-28 22:37:00,53.0,51.0,30.00,WSW,243,0.0,0.0,93,0.00,,---,0.00,VWS V14.01,2013-07-29 02:37:00,
2013-07-28 22:42:00,53.0,51.0,30.00,WSW,243,0.0,0.0,93,0.00,,---,0.00,VWS V14.01,2013-07-29 02:42:00,
2013-07-28 22:47:00,53.0,51.0,30.00,WSW,243,0.0,0.0,93,0.00,,---,0.00,VWS V14.01,2013-07-29 02:47:00,
2013-07-28 22:52:00,52.9,50.9,30.00,WSW,243,0.0,0.0,93,0.00,,---,0.00,VWS V14.01,2013-07-29 02:52:00,
2013-07-28 22:57:00,53.1,51.4,30.00,WSW,243,0.0,0.0,94,0.00,,---,0.00,VWS V14.01,2013-07-29 02:57:00,
2013-07-28 23:00:00,53.2,51.5,30.00,WSW,243,0.0,0.0,94,0.00,,---,0.00,VWS V14.01,2013-07-29 03:00:00,
2013-07-28 23:03:00,53.2,51.5,30.00,WSW,243,0.0,0.0,94,0.00,,---,0.00,VWS V14.01,2013-07-29 03:03:00,
2013-07-28 23:08:00,53.2,51.5,30.00,WSW,243,0.0,0.0,94,0.00,,---,0.00,VWS V14.01,2013-07-29 03:08:00,
2013-07-28 23:13:00,53.0,51.3,30.00,WSW,243,0.0,0.0,94,0.00,,---,0.00,VWS V14.01,2013-07-29 03:13:00,
2013-07-28 23:18:00,52.8,51.1,30.00,WSW,243,0.0,0.0,94,0.00,,---,0.00,VWS V14.01,2013-07-29 03:18:00,
2013-07-28 23:23:00,52.6,50.9,30.00,WSW,243,0.0,0.0,94,0.00,,---,0.00,VWS V14.01,2013-07-29 03:23:00,
2013-07-28 23:28:00,52.5,51.1,30.00,WSW,243,0.0,0.0,95,0.00,,---,0.00,VWS V14.01,2013-07-29 03:28:00,
2013-07-28 23:30:00,52.5,51.1,30.00,WSW,243,0.0,0.0,95,0.00,,---,0.00,VWS V14.01,2013-07-29 03:30:00,
2013-07-28 23:33:00,52.4,50.7,30.00,WSW,243,0.0,0.0,94,0.00,,---,0.00,VWS V14.01,2013-07-29 03:33:00,
2013-07-28 23:38:00,52.3,50.9,30.00,WSW,243,0.0,0.0,95,0.00,,---,0.00,VWS V14.01,2013-07-29 03:38:00,
2013-07-28 23:44:00,52.4,51.0,30.00,WSW,243,0.0,0.0,95,0.00,,---,0.00,VWS V14.01,2013-07-29 03:44:00,
2013-07-28 23:50:00,52.3,50.9,30.00,WSW,243,0.0,0.0,95,0.00,,---,0.00,VWS V14.01,2013-07-29 03:50:00,
2013-07-28 23:54:00,52.2,50.8,30.00,WSW,243,0.0,0.0,95,0.00,,---,0.00,VWS V14.01,2013-07-29 03:54:00,